Location: Briis
(48.6240°N, 2.1211°E)
Time: 15:55:38
(UTC+00:00)

ADEOS II - Pass Details

Date: 25 September 2020
Orbit: 799 x 801 km, 98.5° (Epoch: 21 October)

Event Time Altitude Azimuth Distance (km) Brightness Sun altitude
Rises 03:52:09 0° 3° (N) 3,320 5.6 -18.7°
Reaches altitude 10° 03:55:04 10° 347° (NNW) 2,385 4.6 -18.3°
Maximum altitude 03:58:44 20° 303° (WNW) 1,800 3.6 -17.7°
Enters shadow 03:59:15 19° 295° (WNW) 1,812 3.5 -17.6°
